EDW44S LSZH-OOMS

Flight info

Callsign EDW44S
Flight time N/A
Altitude 35000
Route DEGES Z2 XEBIX L607 ELMEM N606 GIRIS DCT TISAX DCT NAXAV DCT NIVAS DCT BADOP DCT BABAG DCT PEVAL DCT VAKSU/N0482F370 DCT PINDO DCT PAXIS Y707 OBRAN L321 REXUM M872 GOKSA Y214 PEGAR/N0489F390 Y214 RAPMA DCT MEVDO DCT ALROK DCT DEBIN DCT MIDGU M717 PUTSO N685 LAKLU G216 MCT
Aircraft A359/H-SDE2E3GHIJ1J3J4J5LM1ORWXY/LB1D1

Departure

Time N/A
Airport Zürich Airport (LSZH)

Arrival

Time 2026-04-28 19:03
Airport Muscat International Airport (OOMS)
Time Latitude Longitude Altitude Speed Heading
2026-04-28 17:13 24.08698 42.74320 34905 ft 569 kts 110°
2026-04-28 17:13 24.07582 42.78468 34905 ft 569 kts 110°
2026-04-28 17:14 24.05344 42.86771 34909 ft 569 kts 110°
2026-04-28 17:14 24.03111 42.95053 34924 ft 569 kts 110°
2026-04-28 17:15 24.01981 42.99227 35102 ft 569 kts 110°
2026-04-28 17:15 24.00855 43.03376 35278 ft 568 kts 110°
2026-04-28 17:15 23.99730 43.07515 35460 ft 567 kts 110°
2026-04-28 17:15 23.98607 43.11647 35653 ft 566 kts 110°
2026-04-28 17:16 23.97485 43.15769 35831 ft 565 kts 110°
2026-04-28 17:16 23.96362 43.19893 36048 ft 565 kts 110°
2026-04-28 17:16 23.95241 43.24002 36216 ft 564 kts 110°
2026-04-28 17:16 23.94502 43.26712 36340 ft 563 kts 110°
2026-04-28 17:17 23.93379 43.30824 36545 ft 562 kts 110°
2026-04-28 17:17 23.92264 43.34900 36737 ft 561 kts 110°
2026-04-28 17:17 23.91143 43.38995 36899 ft 560 kts 110°
2026-04-28 17:17 23.90028 43.43061 36924 ft 559 kts 110°
2026-04-28 17:18 23.87792 43.51205 36923 ft 558 kts 110°
2026-04-28 17:18 23.85554 43.59336 36914 ft 558 kts 110°
2026-04-28 17:19 23.83315 43.67455 36912 ft 558 kts 110°
2026-04-28 17:19 23.81072 43.75572 36903 ft 557 kts 110°
2026-04-28 17:20 23.78828 43.83670 36884 ft 557 kts 110°
2026-04-28 17:20 23.77209 43.91949 36895 ft 560 kts 98°
2026-04-28 17:21 23.76487 44.00371 36884 ft 561 kts 96°
2026-04-28 17:22 23.75575 44.13110 36878 ft 561 kts 96°
2026-04-28 17:22 23.74952 44.21611 36885 ft 562 kts 97°
2026-04-28 17:23 23.73988 44.34336 36881 ft 563 kts 97°
2026-04-28 17:23 23.73336 44.42837 36874 ft 563 kts 97°
2026-04-28 17:24 23.72678 44.51353 36883 ft 562 kts 97°
2026-04-28 17:24 23.72018 44.59847 36881 ft 562 kts 97°
2026-04-28 17:25 23.71019 44.72584 36878 ft 561 kts 97°
2026-04-28 17:26 23.70349 44.81051 36885 ft 560 kts 97°
2026-04-28 17:26 23.69676 44.89519 36881 ft 560 kts 96°
2026-04-28 17:27 23.69000 44.97996 36880 ft 561 kts 97°
2026-04-28 17:27 23.68310 45.06484 36870 ft 561 kts 97°
2026-04-28 17:28 23.67620 45.14946 36870 ft 559 kts 97°
2026-04-28 17:28 23.66587 45.27596 36868 ft 559 kts 97°
2026-04-28 17:29 23.65887 45.36035 36862 ft 559 kts 97°
2026-04-28 17:30 23.64831 45.48648 36859 ft 559 kts 97°
2026-04-28 17:30 23.63765 45.61308 36854 ft 558 kts 97°
2026-04-28 17:31 23.62694 45.73924 36845 ft 557 kts 97°
2026-04-28 17:32 23.61606 45.86549 36841 ft 559 kts 97°
2026-04-28 17:32 23.60873 45.94997 36843 ft 559 kts 97°
2026-04-28 17:33 23.60137 46.03441 36843 ft 559 kts 97°
2026-04-28 17:33 23.59520 46.10472 36843 ft 560 kts 97°
2026-04-28 17:34 23.58654 46.20287 36837 ft 559 kts 97°
2026-04-28 17:34 23.57904 46.28731 36839 ft 559 kts 97°
2026-04-28 17:35 23.57150 46.37154 36839 ft 559 kts 97°
2026-04-28 17:35 23.56392 46.45582 36840 ft 557 kts 97°
2026-04-28 17:36 23.55631 46.53990 36843 ft 557 kts 97°
2026-04-28 17:36 23.54871 46.62394 36827 ft 556 kts 97°
2026-04-28 17:37 23.54102 46.70757 36827 ft 554 kts 97°
2026-04-28 17:37 23.53329 46.79136 36821 ft 554 kts 97°
2026-04-28 17:38 23.52553 46.87486 36810 ft 554 kts 97°
2026-04-28 17:38 23.51779 46.95789 36810 ft 554 kts 97°
2026-04-28 17:39 23.50995 47.04142 36799 ft 555 kts 97°
2026-04-28 17:40 23.49809 47.16700 36790 ft 555 kts 97°
2026-04-28 17:40 23.49015 47.25041 36788 ft 553 kts 97°
2026-04-28 17:41 23.48216 47.33392 36785 ft 554 kts 97°
2026-04-28 17:41 23.47414 47.41723 36786 ft 554 kts 97°
2026-04-28 17:42 23.46606 47.50074 36777 ft 554 kts 97°
2026-04-28 17:42 23.45796 47.58424 36771 ft 554 kts 98°
2026-04-28 17:43 23.44978 47.66778 36769 ft 554 kts 98°
2026-04-28 17:43 23.44156 47.75121 36760 ft 553 kts 98°
2026-04-28 17:44 23.43323 47.83432 36754 ft 552 kts 98°
2026-04-28 17:44 23.42445 47.91663 36749 ft 551 kts 98°
2026-04-28 17:45 23.41550 47.99952 36743 ft 551 kts 98°
2026-04-28 17:45 23.40659 48.08240 36744 ft 551 kts 98°
2026-04-28 17:46 23.39769 48.16529 36736 ft 551 kts 98°
2026-04-28 17:46 23.38873 48.24832 36728 ft 551 kts 98°
2026-04-28 17:47 23.37976 48.33102 36738 ft 549 kts 98°
2026-04-28 17:47 23.37076 48.41359 36738 ft 549 kts 98°
2026-04-28 17:48 23.36176 48.49568 36733 ft 549 kts 98°
2026-04-28 17:48 23.35268 48.57815 36730 ft 549 kts 98°
2026-04-28 17:49 23.34355 48.66065 36731 ft 549 kts 98°
2026-04-28 17:49 23.33439 48.74310 36732 ft 549 kts 98°
2026-04-28 17:50 23.32517 48.82554 36726 ft 548 kts 98°
2026-04-28 17:50 23.31594 48.90781 36727 ft 548 kts 98°
2026-04-28 17:51 23.30666 48.98998 36726 ft 547 kts 98°
2026-04-28 17:51 23.29739 49.07181 36727 ft 547 kts 98°
2026-04-28 17:52 23.28803 49.15400 36726 ft 547 kts 98°
2026-04-28 17:52 23.27391 49.27722 36726 ft 547 kts 98°
2026-04-28 17:53 23.26445 49.35934 36715 ft 547 kts 98°
2026-04-28 17:53 23.25497 49.44126 36728 ft 545 kts 98°
2026-04-28 17:54 23.24546 49.52304 36717 ft 545 kts 98°
2026-04-28 17:54 23.23590 49.60486 36732 ft 545 kts 98°
2026-04-28 17:55 23.22631 49.68657 36723 ft 545 kts 98°
2026-04-28 17:55 23.21672 49.76793 36725 ft 545 kts 98°
2026-04-28 17:56 23.20705 49.84961 36728 ft 546 kts 98°
2026-04-28 17:56 23.19731 49.93148 36713 ft 546 kts 98°
2026-04-28 17:57 23.18756 50.01311 36728 ft 544 kts 98°
2026-04-28 17:57 23.17778 50.09464 36723 ft 543 kts 98°
2026-04-28 17:58 23.16796 50.17605 36732 ft 543 kts 98°
2026-04-28 17:58 23.15811 50.25740 36738 ft 543 kts 98°
2026-04-28 17:59 23.14823 50.33866 36735 ft 543 kts 99°
2026-04-28 17:59 23.13830 50.41999 36735 ft 543 kts 99°
2026-04-28 18:00 23.12833 50.50120 36742 ft 543 kts 99°
2026-04-28 18:00 23.11831 50.58252 36742 ft 542 kts 98°
2026-04-28 18:01 23.10829 50.66355 36736 ft 541 kts 98°
2026-04-28 18:01 23.09829 50.74403 36736 ft 540 kts 99°
2026-04-28 18:02 23.08820 50.82484 36732 ft 540 kts 99°
2026-04-28 18:02 23.07807 50.90570 36735 ft 540 kts 99°
2026-04-28 18:03 23.06789 50.98658 36731 ft 540 kts 99°
2026-04-28 18:03 23.05768 51.06740 36733 ft 540 kts 99°
2026-04-28 18:04 23.04914 51.13465 36725 ft 540 kts 99°
2026-04-28 18:04 23.03889 51.21517 36733 ft 538 kts 99°
2026-04-28 18:05 23.02861 51.29559 36725 ft 537 kts 99°
2026-04-28 18:05 23.01828 51.37606 36734 ft 537 kts 99°
2026-04-28 18:06 23.00792 51.45641 36735 ft 538 kts 99°
2026-04-28 18:06 22.99759 51.53621 36735 ft 538 kts 99°
2026-04-28 18:07 22.98715 51.61652 36732 ft 537 kts 99°
2026-04-28 18:07 22.97667 51.69687 36735 ft 537 kts 99°
2026-04-28 18:08 22.96613 51.77733 36730 ft 537 kts 99°
2026-04-28 18:08 22.95557 51.85761 36732 ft 538 kts 99°
2026-04-28 18:09 22.94501 51.93752 36734 ft 538 kts 99°
2026-04-28 18:09 22.93437 52.01784 36734 ft 538 kts 99°
2026-04-28 18:10 22.92366 52.09825 36733 ft 539 kts 99°
2026-04-28 18:10 22.91291 52.17870 36731 ft 539 kts 99°
2026-04-28 18:11 22.90213 52.25909 36731 ft 539 kts 99°
2026-04-28 18:11 22.89128 52.33960 36727 ft 539 kts 99°
2026-04-28 18:12 22.88044 52.41979 36729 ft 537 kts 99°
2026-04-28 18:12 22.86959 52.49974 36733 ft 536 kts 99°
2026-04-28 18:13 22.85868 52.57978 36734 ft 536 kts 99°
2026-04-28 18:13 22.84777 52.65959 36731 ft 536 kts 99°
2026-04-28 18:14 22.83678 52.73960 36735 ft 536 kts 99°
2026-04-28 18:14 22.82585 52.81890 36728 ft 536 kts 99°
2026-04-28 18:15 22.81480 52.89878 36729 ft 536 kts 99°
2026-04-28 18:15 22.80372 52.97863 36716 ft 536 kts 99°
2026-04-28 18:16 22.79260 53.05838 36727 ft 535 kts 99°
2026-04-28 18:16 22.78147 53.13799 36728 ft 534 kts 99°
2026-04-28 18:17 22.77030 53.21754 36727 ft 534 kts 99°
2026-04-28 18:17 22.75909 53.29709 36727 ft 534 kts 99°
2026-04-28 18:18 22.74783 53.37669 36724 ft 535 kts 99°
2026-04-28 18:18 22.73844 53.44285 36724 ft 535 kts 99°
2026-04-28 18:19 22.72519 53.53590 36725 ft 535 kts 99°
2026-04-28 18:19 22.71379 53.61560 36710 ft 535 kts 99°
2026-04-28 18:20 22.70239 53.69506 36722 ft 533 kts 99°
2026-04-28 18:20 22.69097 53.77426 36730 ft 532 kts 99°
2026-04-28 18:21 22.67960 53.85295 36722 ft 533 kts 99°
2026-04-28 18:21 22.66808 53.93237 36724 ft 533 kts 99°
2026-04-28 18:22 22.65653 54.01170 36726 ft 533 kts 99°
2026-04-28 18:22 22.64495 54.09098 36725 ft 534 kts 99°
2026-04-28 18:23 22.63330 54.17044 36727 ft 534 kts 99°
2026-04-28 18:23 22.62160 54.24992 36721 ft 534 kts 99°
2026-04-28 18:24 22.61188 54.31580 36724 ft 533 kts 99°
2026-04-28 18:24 22.59824 54.40794 36723 ft 532 kts 99°
2026-04-28 18:25 22.58646 54.48712 36723 ft 532 kts 99°
2026-04-28 18:26 22.56873 54.60585 36726 ft 533 kts 99°
2026-04-28 18:26 22.55685 54.68505 36725 ft 533 kts 99°
2026-04-28 18:27 22.54492 54.76433 36722 ft 533 kts 99°
2026-04-28 18:27 22.53298 54.84341 36725 ft 533 kts 100°
2026-04-28 18:28 22.52108 54.92199 36726 ft 533 kts 100°
2026-04-28 18:28 22.50907 55.00095 36732 ft 531 kts 99°
2026-04-28 18:29 22.49706 55.07972 36735 ft 530 kts 99°
2026-04-28 18:29 22.48503 55.15831 36734 ft 530 kts 100°
2026-04-28 18:30 22.47297 55.23685 36742 ft 530 kts 100°
2026-04-28 18:30 22.46313 55.31586 36739 ft 530 kts 91°
2026-04-28 18:31 22.47273 55.39389 36743 ft 527 kts 71°
2026-04-28 18:31 22.50411 55.46507 36743 ft 524 kts 57°
2026-04-28 18:32 22.54439 55.53087 36749 ft 524 kts 53°
2026-04-28 18:32 22.58579 55.59579 36752 ft 524 kts 53°
2026-04-28 18:33 22.62649 55.66125 36749 ft 524 kts 54°
2026-04-28 18:33 22.66645 55.72676 36755 ft 524 kts 54°
2026-04-28 18:34 22.70651 55.79279 36755 ft 524 kts 55°
2026-04-28 18:34 22.74655 55.85883 36755 ft 524 kts 55°
2026-04-28 18:35 22.78655 55.92483 36762 ft 526 kts 54°
2026-04-28 18:35 22.82673 55.99118 36761 ft 527 kts 54°
2026-04-28 18:36 22.86694 56.05767 36765 ft 527 kts 54°
2026-04-28 18:36 22.90718 56.12429 36769 ft 527 kts 54°
2026-04-28 18:37 22.94727 56.19075 36770 ft 527 kts 55°
2026-04-28 18:37 22.98744 56.25742 36764 ft 527 kts 55°
2026-04-28 18:37 23.00749 56.29074 36565 ft 526 kts 54°
2026-04-28 18:38 23.02750 56.32402 36301 ft 526 kts 55°
2026-04-28 18:38 23.04689 56.35715 36067 ft 528 kts 56°
2026-04-28 18:38 23.06629 56.39166 35822 ft 529 kts 57°
2026-04-28 18:38 23.08499 56.42549 35545 ft 528 kts 57°
2026-04-28 18:39 23.10378 56.45960 34984 ft 526 kts 56°
2026-04-28 18:39 23.12260 56.49367 34268 ft 527 kts 56°
2026-04-28 18:39 23.14159 56.52788 33477 ft 530 kts 55°
2026-04-28 18:39 23.16069 56.56216 32643 ft 531 kts 55°
2026-04-28 18:40 23.17990 56.59658 31838 ft 533 kts 55°
2026-04-28 18:40 23.19918 56.63107 31020 ft 535 kts 55°
2026-04-28 18:40 23.21857 56.66570 30400 ft 534 kts 55°
2026-04-28 18:40 23.23782 56.70007 29835 ft 531 kts 55°
2026-04-28 18:41 23.25694 56.73419 29169 ft 528 kts 55°
2026-04-28 18:41 23.27599 56.76824 28587 ft 524 kts 56°
2026-04-28 18:41 23.29483 56.80193 28022 ft 520 kts 56°
2026-04-28 18:41 23.31353 56.83541 27437 ft 516 kts 56°
2026-04-28 18:42 23.33163 56.86902 26890 ft 514 kts 61°
2026-04-28 18:42 23.34471 56.90500 26331 ft 513 kts 73°
2026-04-28 18:42 23.35375 56.94245 25757 ft 510 kts 76°
2026-04-28 18:42 23.36142 56.98002 25201 ft 506 kts 78°
2026-04-28 18:43 23.36824 57.01702 24659 ft 503 kts 78°
2026-04-28 18:43 23.37483 57.05424 24082 ft 500 kts 79°
2026-04-28 18:43 23.38137 57.09139 23514 ft 498 kts 79°
2026-04-28 18:43 23.38791 57.12824 22856 ft 494 kts 79°
2026-04-28 18:44 23.39448 57.16484 22249 ft 489 kts 79°
2026-04-28 18:44 23.40757 57.23692 21083 ft 480 kts 78°
2026-04-28 18:44 23.41403 57.27229 20502 ft 475 kts 78°
2026-04-28 18:45 23.42046 57.30746 19909 ft 471 kts 78°
2026-04-28 18:45 23.42682 57.34233 19339 ft 467 kts 78°
2026-04-28 18:45 23.43309 57.37683 18758 ft 463 kts 78°
2026-04-28 18:45 23.43924 57.41067 18148 ft 460 kts 78°
2026-04-28 18:46 23.44549 57.44506 17494 ft 456 kts 78°
2026-04-28 18:46 23.45160 57.47874 16899 ft 450 kts 78°
2026-04-28 18:46 23.45756 57.51166 16297 ft 446 kts 78°
2026-04-28 18:46 23.46351 57.54454 15717 ft 441 kts 78°
2026-04-28 18:47 23.46939 57.57713 15126 ft 436 kts 78°
2026-04-28 18:47 23.47521 57.60944 14545 ft 432 kts 78°
2026-04-28 18:47 23.48095 57.64132 14020 ft 426 kts 78°
2026-04-28 18:47 23.48659 57.67268 13580 ft 418 kts 78°
2026-04-28 18:48 23.49215 57.70355 13021 ft 412 kts 78°
2026-04-28 18:48 23.49761 57.73392 12441 ft 406 kts 78°
2026-04-28 18:48 23.50300 57.76400 11894 ft 401 kts 78°
2026-04-28 18:48 23.50829 57.79351 11329 ft 396 kts 78°
2026-04-28 18:49 23.51352 57.82279 10962 ft 386 kts 78°
2026-04-28 18:49 23.51516 57.83196 10918 ft 381 kts 78°
2026-04-28 18:49 23.52328 57.87741 10710 ft 354 kts 78°
2026-04-28 18:49 23.52789 57.90325 10576 ft 340 kts 78°
2026-04-28 18:50 23.53232 57.92812 10412 ft 327 kts 78°
2026-04-28 18:50 23.53658 57.95203 10242 ft 317 kts 78°
2026-04-28 18:50 23.54073 57.97535 9949 ft 311 kts 78°
2026-04-28 18:50 23.54483 57.99837 9546 ft 310 kts 78°
2026-04-28 18:51 23.54895 58.02152 9091 ft 308 kts 78°
2026-04-28 18:51 23.55300 58.04432 8745 ft 304 kts 78°
2026-04-28 18:51 23.55699 58.06682 8405 ft 301 kts 78°
2026-04-28 18:51 23.56090 58.08889 8059 ft 299 kts 78°
2026-04-28 18:52 23.56483 58.11107 7741 ft 298 kts 77°
2026-04-28 18:52 23.56877 58.13332 7409 ft 297 kts 77°
2026-04-28 18:52 23.57264 58.15526 7182 ft 291 kts 77°
2026-04-28 18:52 23.57514 58.16943 7078 ft 283 kts 77°
2026-04-28 18:53 23.57877 58.19008 6968 ft 271 kts 77°
2026-04-28 18:53 23.58342 58.21647 6649 ft 264 kts 77°
2026-04-28 18:53 23.58575 58.22968 6453 ft 262 kts 76°
2026-04-28 18:53 23.59048 58.25540 6048 ft 259 kts 73°
2026-04-28 18:54 23.59438 58.26779 5916 ft 254 kts 63°
2026-04-28 18:54 23.60181 58.28544 5787 ft 256 kts 61°
2026-04-28 18:54 23.60942 58.30294 5657 ft 256 kts 61°
2026-04-28 18:54 23.61691 58.32027 5522 ft 255 kts 61°
2026-04-28 18:55 23.62442 58.33771 5368 ft 254 kts 61°
2026-04-28 18:55 23.63194 58.35517 5251 ft 254 kts 61°
2026-04-28 18:55 23.63933 58.37242 5110 ft 244 kts 61°
2026-04-28 18:55 23.64636 58.38889 4986 ft 234 kts 61°
2026-04-28 18:56 23.65316 58.40478 4854 ft 228 kts 60°
2026-04-28 18:56 23.65987 58.42041 4731 ft 228 kts 60°
2026-04-28 18:56 23.66658 58.43605 4605 ft 228 kts 60°
2026-04-28 18:56 23.67329 58.45171 4514 ft 227 kts 60°
2026-04-28 18:57 23.67883 58.46787 4416 ft 230 kts 73°
2026-04-28 18:57 23.67879 58.48540 4278 ft 237 kts 101°
2026-04-28 18:57 23.67148 58.50125 4082 ft 240 kts 130°
2026-04-28 18:57 23.65823 58.51187 3909 ft 237 kts 161°
2026-04-28 18:58 23.64268 58.51264 3844 ft 214 kts 205°
2026-04-28 18:58 23.63193 58.50360 3798 ft 189 kts 241°
2026-04-28 18:58 23.62574 58.49118 3618 ft 185 kts 257°
2026-04-28 18:58 23.62346 58.47764 3369 ft 181 kts 269°
2026-04-28 18:59 23.62227 58.46392 3060 ft 183 kts 269°
2026-04-28 18:59 23.62125 58.44994 2687 ft 186 kts 269°
2026-04-28 18:59 23.62014 58.43596 2389 ft 183 kts 268°
2026-04-28 18:59 23.61905 58.42239 2178 ft 178 kts 267°
2026-04-28 19:00 23.61800 58.40895 1960 ft 178 kts 266°
2026-04-28 19:00 23.61692 58.39556 1739 ft 176 kts 266°
2026-04-28 19:00 23.61587 58.38242 1540 ft 170 kts 265°
2026-04-28 19:00 23.61488 58.37004 1308 ft 158 kts 265°
2026-04-28 19:01 23.61397 58.35863 1113 ft 145 kts 266°
2026-04-28 19:01 23.61312 58.34800 950 ft 139 kts 267°
2026-04-28 19:01 23.61229 58.33755 797 ft 138 kts 265°
2026-04-28 19:01 23.61153 58.32683 663 ft 148 kts 266°
2026-04-28 19:02 23.61056 58.31564 460 ft 147 kts 265°
2026-04-28 19:02 23.60968 58.30440 251 ft 152 kts 267°
2026-04-28 19:02 23.60873 58.29274 64 ft 156 kts 267°
2026-04-28 19:02 23.60790 58.28186 45 ft 120 kts 265°
2026-04-28 19:03 23.60737 58.27554 50 ft 66 kts 264°
2026-04-28 19:03 23.60689 58.27160 46 ft 39 kts 251°
2026-04-28 19:03 23.60567 58.26916 46 ft 34 kts 235°
2026-04-28 19:03 23.60487 58.26797 45 ft 10 kts 225°
2026-04-28 19:04 23.60425 58.26770 49 ft 6 kts 172°
2026-04-28 19:04 23.60413 58.26794 48 ft 5 kts 108°
2026-04-28 19:04 23.60414 58.26864 46 ft 13 kts 85°
2026-04-28 19:04 23.60421 58.26944 47 ft 15 kts 85°
2026-04-28 19:05 23.60430 58.27061 46 ft 16 kts 85°
2026-04-28 19:05 23.60439 58.27190 47 ft 18 kts 86°
2026-04-28 19:05 23.60451 58.27328 51 ft 19 kts 84°
2026-04-28 19:05 23.60464 58.27476 49 ft 20 kts 85°
2026-04-28 19:06 23.60469 58.27587 51 ft 10 kts 104°
2026-04-28 19:06 23.60443 58.27629 47 ft 11 kts 128°
2026-04-28 19:06 23.60370 58.27726 48 ft 13 kts 130°
2026-04-28 19:06 23.60307 58.27808 45 ft 15 kts 130°
2026-04-28 19:07 23.60243 58.27891 47 ft 12 kts 125°
2026-04-28 19:07 23.60235 58.27980 48 ft 13 kts 85°
2026-04-28 19:07 23.60243 58.28080 46 ft 14 kts 85°
2026-04-28 19:07 23.60252 58.28191 51 ft 12 kts 85°
2026-04-28 19:08 23.60246 58.28236 51 ft 2 kts 143°
2026-04-28 19:08 23.60228 58.28242 50 ft 4 kts 164°
2026-04-28 19:08 23.60187 58.28247 48 ft 7 kts 174°
2026-04-28 19:08 23.60152 58.28251 47 ft 0 kts 174°